Location: Newark
(15.4608°S, 41.1635°W)
Time: 23:36:11
(UTC+00:00)

Vanguard 3 - Pass Details

Date: 01 August 2021
Orbit: 510 x 3260 km, 33.3° (Epoch: 20 September)

Event Time Altitude Azimuth Distance (km) Brightness Sun altitude
Rises 04:15:37 0° 323° (NW) 6,714 - -69.6°
Reaches altitude 10° 04:21:13 10° 330° (NNW) 5,324 - -68.3°
Maximum altitude 04:33:41 35° 29° (NNE) 2,683 - -65.3°
Drops below altitude 10° 04:41:25 10° 91° (E) 3,301 - -63.5°
Sets 04:43:59 0° 101° (E) 3,962 - -62.9°
Exits shadow 04:44:04 - 101° (E) 3,986 11.1 -62.8°
